Flag for Micronesia Weather past 2 weeks in Colonia, Yap, Micronesia

Now
82 °F

Scattered clouds.


Feels Like: 87 °F
Forecast: 78 / 85 °F
Wind: 13 mph from Northeast

Location: Yap Island

Current Time: Mar 4, 2015 at 9:38:08 AM

Latest Report: Mar 4, 2015 at 8:50 AM


Visibility: 12 mi

Pressure: 29.85 "Hg

Humidity: 75%

Dew point: 73 °F

Location of ColoniaLocation

Historic Weather in Colonia — Graph

°F

Colonia temperature yesterday

Maximum temperature yesterday: 86 °F (at 11:53 AM)
Minimum temperature yesterday: 77 °F (at 1:50 PM)
Average temperature yesterday: 80 °F

Past Weeks' High & Low Weather Summary

 TemperatureHumidityPressure
High87 °F (Feb 18, 12:51 PM)97% (Feb 23, 11:55 AM)29.96 "Hg (Feb 23, 11:55 AM)
Low72 °F (Feb 23, 9:50 AM)58% (Feb 20, 11:51 AM)29.72 "Hg (Mar 2, 3:50 PM)
Average80 °F79%29.84 "Hg
* Reported Feb 17 7:52 AM — Mar 4 7:52 AM, Colonia, Weather by CustomWeather, © 2015

Note: Actual official high and low records may vary slightly from our data, if they occured in-between our weather recording intervals... More about our weather records

Advertising

Colonia weather history for previous 24 hours

 ConditionsComfort  
Time TempWeatherWind HumidityBarometerVisibility
7:52 AM
Wed, Mar 4
79 °FPassing clouds.6 mph82%29.84 "Hg12 mi
6:52 AM77 °FPassing clouds.5 mph86%29.82 "Hg12 mi
5:59 AM77 °FPartly cloudy.5 mph85%29.80 "Hg12 mi
4:53 AM78 °FPartly cloudy.6 mph85%29.80 "Hg12 mi
3:53 AM78 °FPartly cloudy.7 mph86%29.80 "Hg12 mi
2:50 AM78 °FPassing clouds.7 mph84%29.80 "Hg12 mi
1:52 AM79 °FPartly cloudy.8 mph84%29.81 "Hg12 mi
12:51 AM79 °FPartly cloudy.7 mph84%29.82 "Hg12 mi
11:51 PM
Tue, Mar 3
79 °FPartly cloudy.6 mph85%29.83 "Hg12 mi
10:50 PM79 °FPartly cloudy.8 mph84%29.83 "Hg12 mi
9:53 PM79 °FPartly cloudy.8 mph85%29.83 "Hg12 mi
8:54 PM79 °FPartly cloudy.6 mph85%29.81 "Hg12 mi
7:54 PM80 °FBroken clouds.7 mph84%29.80 "Hg12 mi
6:54 PM80 °FBroken clouds.8 mph82%29.79 "Hg12 mi
5:52 PM83 °FWarm.8 mph77%29.78 "Hg12 mi
4:51 PM84 °FPartly sunny.12 mph75%29.77 "Hg12 mi
3:54 PM82 °FBroken clouds.9 mph83%29.78 "Hg12 mi
2:54 PM77 °FSprinkles. Cloudy.6 mph88%29.78 "Hg11 mi
1:50 PM77 °FSprinkles. Cloudy.9 mph89%29.81 "Hg10 mi
12:50 PM82 °FCloudy.6 mph83%29.83 "Hg12 mi
11:53 AM86 °FMostly cloudy.13 mph75%29.84 "Hg12 mi
10:53 AM84 °FMore clouds than sun.7 mph77%29.85 "Hg12 mi
9:52 AM83 °FMostly cloudy.9 mph78%29.85 "Hg12 mi
Weather by CustomWeather, © 2015

See weather overviewHow to use our weather pages